| time (UTC) | temp F | wind direction | speed MPH | gust MPH | rain 1hr in | rain 24hr in | rain mn in | humidity % | barometer mb |
| 20260504110525 | 43 | 212 | 2.0 | 3.0 | 0.00 | 0.00 | 0.00 | 73 | 1010.4 |
| 20260504100527 | 44 | 180 | 2.0 | 3.0 | 0.00 | 0.00 | 0.00 | 69 | 1009.9 |
| 20260504081528 | 39 | 186 | 4.0 | 4.0 | 0.00 | 0.00 | 0.00 | 80 | 1010.0 |
| 20260504080529 | 39 | 187 | 3.0 | 4.0 | 0.00 | 0.00 | 0.00 | 81 | 1010.1 |
| 20260504050557 | 42 | 200 | 2.0 | 4.0 | 0.00 | 0.00 | 0.00 | 72 | 1010.5 |
| 20260504045532 | 41 | 218 | 2.0 | 4.0 | 0.00 | 0.00 | 0.00 | 73 | 1010.6 |
| 20260504044533 | 41 | 225 | 2.0 | 4.0 | 0.00 | 0.00 | 0.00 | 73 | 1010.6 |
| 20260504043532 | 40 | 190 | 1.0 | 2.0 | 0.00 | 0.00 | 0.00 | 74 | 1010.7 |
| 20260504042532 | 40 | 204 | 3.0 | 4.0 | 0.00 | 0.00 | 0.00 | 75 | 1010.7 |
| 20260504041533 | 40 | 210 | 3.0 | 4.0 | 0.00 | 0.00 | 0.00 | 73 | 1010.6 |
| 20260504040532 | 41 | 210 | 3.0 | 4.0 | 0.00 | 0.00 | 0.00 | 73 | 1010.4 |
| 20260504035532 | 41 | 201 | 3.0 | 4.0 | 0.00 | 0.00 | 0.00 | 72 | 1010.4 |
| 20260504034558 | 42 | 201 | 3.0 | 5.0 | 0.00 | 0.00 | 0.00 | 67 | 1010.2 |
| 20260504033522 | 41 | 195 | 2.0 | 3.0 | 0.00 | 0.00 | 0.00 | 69 | 1010.3 |
| 20260504032522 | 43 | 214 | 2.0 | 4.0 | 0.00 | 0.00 | 0.00 | 66 | 1010.3 |
| 20260504031522 | 45 | 211 | 2.0 | 4.0 | 0.00 | 0.00 | 0.00 | 60 | 1010.3 |
| 20260504030522 | 45 | 48 | 2.0 | 6.0 | 0.00 | 0.00 | 0.00 | 56 | 1010.1 |
| 20260504025523 | 46 | 207 | 3.0 | 8.0 | 0.00 | 0.00 | 0.00 | 56 | 1010.0 |
| 20260504024523 | 46 | 74 | 2.0 | 3.0 | 0.00 | 0.00 | 0.00 | 54 | 1010.1 |
| 20260504023548 | 46 | 28 | 2.0 | 7.0 | 0.00 | 0.00 | 0.00 | 54 | 1010.2 |
| 20260504022523 | 46 | 336 | 3.0 | 9.0 | 0.00 | 0.00 | 0.00 | 53 | 1010.1 |
| 20260504021523 | 46 | 15 | 4.0 | 9.0 | 0.00 | 0.00 | 0.00 | 52 | 1010.1 |
| 20260504020524 | 47 | 59 | 2.0 | 5.0 | 0.00 | 0.00 | 0.00 | 51 | 1010.2 |
| 20260504015610 | 47 | 349 | 3.0 | 7.0 | 0.00 | 0.00 | 0.00 | 50 | 1010.2 |
| 20260504014546 | 47 | 260 | 3.0 | 7.0 | 0.00 | 0.00 | 0.00 | 50 | 1010.1 |
| 20260504013611 | 47 | 187 | 3.0 | 6.0 | 0.00 | 0.00 | 0.00 | 49 | 1010.0 |
| 20260504012546 | 47 | 222 | 4.0 | 7.0 | 0.00 | 0.00 | 0.00 | 49 | 1009.9 |
| 20260504011521 | 47 | 356 | 3.0 | 9.0 | 0.00 | 0.00 | 0.00 | 48 | 1009.8 |
| 20260504010521 | 47 | 261 | 3.0 | 6.0 | 0.00 | 0.00 | 0.00 | 48 | 1009.7 |
| 20260504005522 | 47 | 75 | 3.0 | 6.0 | 0.00 | 0.00 | 0.00 | 48 | 1009.5 |
| 20260504004522 | 47 | 1 | 3.0 | 6.0 | 0.00 | 0.00 | 0.00 | 47 | 1009.4 |
| 20260504003522 | 47 | 41 | 3.0 | 7.0 | 0.00 | 0.00 | 0.00 | 45 | 1009.3 |
| 20260504002522 | 47 | 206 | 4.0 | 8.0 | 0.00 | 0.00 | 0.00 | 45 | 1009.2 |
| 20260504001522 | 47 | 195 | 3.0 | 7.0 | 0.00 | 0.00 | 0.00 | 45 | 1009.1 |
| 20260504000522 | 47 | 198 | 3.0 | 8.0 | 0.00 | 0.00 | 0.00 | 42 | 1008.9 |
| 20260503235523 | 48 | 255 | 3.0 | 7.0 | 0.00 | 0.00 | 0.00 | 40 | 1008.7 |
| 20260503234523 | 48 | 231 | 3.0 | 8.0 | 0.00 | 0.00 | 0.00 | 40 | 1008.7 |
| 20260503233523 | 48 | 349 | 3.0 | 7.0 | 0.00 | 0.00 | 0.00 | 39 | 1008.5 |
| 20260503232524 | 48 | 19 | 4.0 | 8.0 | 0.00 | 0.00 | 0.00 | 38 | 1008.5 |
| 20260503231523 | 48 | 199 | 2.0 | 5.0 | 0.00 | 0.00 | 0.00 | 38 | 1008.5 |
| 20260503230520 | 48 | 269 | 4.0 | 8.0 | 0.00 | 0.00 | 0.00 | 36 | 1008.4 |
| 20260503225521 | 49 | 258 | 5.0 | 12.0 | 0.00 | 0.00 | 0.00 | 36 | 1008.3 |
| 20260503224521 | 49 | 321 | 2.0 | 6.0 | 0.00 | 0.00 | 0.00 | 36 | 1008.3 |
| 20260503223521 | 49 | 306 | 5.0 | 10.0 | 0.00 | 0.00 | 0.00 | 36 | 1008.3 |
| 20260503222521 | 49 | 310 | 3.0 | 10.0 | 0.00 | 0.00 | 0.00 | 36 | 1008.3 |
| 20260503221521 | 49 | 310 | 5.0 | 10.0 | 0.00 | 0.00 | 0.00 | 37 | 1008.3 |
| 20260503220521 | 49 | 347 | 8.0 | 12.0 | 0.00 | 0.00 | 0.00 | 37 | 1008.2 |
| 20260503215522 | 49 | 345 | 5.0 | 11.0 | 0.00 | 0.00 | 0.00 | 40 | 1008.2 |
| 20260503214522 | 50 | 318 | 6.0 | 10.0 | 0.00 | 0.00 | 0.00 | 40 | 1008.2 |
| 20260503213522 | 49 | 15 | 5.0 | 9.0 | 0.00 | 0.00 | 0.00 | 41 | 1008.1 |
| 20260503212522 | 49 | 332 | 6.0 | 10.0 | 0.00 | 0.00 | 0.00 | 42 | 1008.1 |
| 20260503211522 | 48 | 24 | 6.0 | 10.0 | 0.00 | 0.00 | 0.00 | 44 | 1008.1 |
| 20260503210523 | 48 | 3 | 5.0 | 11.0 | 0.00 | 0.00 | 0.00 | 44 | 1008.3 |
| 20260503205523 | 48 | 344 | 5.0 | 10.0 | 0.00 | 0.00 | 0.00 | 44 | 1008.3 |
| 20260503204523 | 48 | 353 | 3.0 | 8.0 | 0.00 | 0.00 | 0.00 | 44 | 1008.1 |
| 20260503203523 | 47 | 19 | 5.0 | 9.0 | 0.00 | 0.00 | 0.00 | 45 | 1008.3 |
| 20260503202520 | 47 | 3 | 4.0 | 10.0 | 0.00 | 0.00 | 0.00 | 46 | 1008.4 |
| 20260503201546 | 46 | 22 | 3.0 | 10.0 | 0.00 | 0.00 | 0.00 | 47 | 1008.4 |
| 20260503200546 | 46 | 25 | 4.0 | 8.0 | 0.00 | 0.00 | 0.00 | 48 | 1008.4 |
| 20260503195521 | 45 | 237 | 3.0 | 9.0 | 0.00 | 0.00 | 0.00 | 49 | 1008.6 |
| 20260503194547 | 46 | 345 | 5.0 | 10.0 | 0.00 | 0.00 | 0.00 | 49 | 1008.8 |
| 20260503193521 | 46 | 255 | 5.0 | 12.0 | 0.00 | 0.00 | 0.00 | 49 | 1008.5 |
| 20260503192547 | 45 | 7 | 6.0 | 13.0 | 0.00 | 0.00 | 0.00 | 48 | 1008.7 |
| 20260503191522 | 45 | 355 | 7.0 | 12.0 | 0.00 | 0.00 | 0.00 | 49 | 1008.8 |
| 20260503190522 | 45 | 6 | 5.0 | 9.0 | 0.00 | 0.00 | 0.00 | 49 | 1008.7 |
| 20260503185522 | 45 | 298 | 4.0 | 9.0 | 0.00 | 0.00 | 0.00 | 51 | 1008.8 |
| 20260503184522 | 45 | 356 | 5.0 | 12.0 | 0.00 | 0.00 | 0.00 | 51 | 1008.9 |
| 20260503183522 | 44 | 355 | 5.0 | 10.0 | 0.00 | 0.00 | 0.00 | 51 | 1009.0 |
| 20260503182522 | 44 | 286 | 6.0 | 12.0 | 0.00 | 0.00 | 0.00 | 51 | 1008.9 |
| 20260503181523 | 45 | 353 | 6.0 | 13.0 | 0.00 | 0.00 | 0.00 | 51 | 1008.9 |
| 20260503180548 | 45 | 240 | 7.0 | 17.0 | 0.00 | 0.00 | 0.00 | 51 | 1009.0 |
| 20260503175523 | 45 | 257 | 7.0 | 13.0 | 0.00 | 0.00 | 0.00 | 50 | 1008.7 |
| 20260503174523 | 46 | 281 | 4.0 | 9.0 | 0.00 | 0.00 | 0.00 | 49 | 1008.6 |
| 20260503173523 | 44 | 244 | 4.0 | 9.0 | 0.00 | 0.00 | 0.00 | 52 | 1008.5 |
| 20260503172521 | 44 | 6 | 4.0 | 9.0 | 0.00 | 0.00 | 0.00 | 52 | 1008.8 |
| 20260503171611 | 44 | 343 | 6.0 | 10.0 | 0.00 | 0.00 | 0.00 | 51 | 1008.8 |
| 20260503170521 | 44 | 305 | 6.0 | 11.0 | 0.00 | 0.00 | 0.00 | 51 | 1008.7 |
| 20260503150523 | 42 | 347 | 3.0 | 7.0 | 0.00 | 0.00 | 0.00 | 64 | 1009.2 |
| 20260503130522 | 40 | 355 | 3.0 | 6.0 | 0.00 | 0.00 | 0.00 | 76 | 1009.3 |